Flight Information

DEPARTURE
LANCASTER, CA
Elevation:
2350
Runways:
6/24 - 7201x150 - ASPH-G
ATIS:
126.3
Ground:
121.7
Tower:
FOX TOWER 118.525
DESTINATION
,
Elevation:
TPA:
1000 (est.)


6771.6 NM73° True-14° Var59° HDG

Flight Plan:
(click to file on line)

1. Type
2. Aircraft Identification
3. Aircraft Type / Special Equipment
4. True Airspeed
kts
5. Departure Airport
(ICAO code)
6. Arriving Airport
(ICAO code)
7. Cruising Altitude
ft
8. Alternate Airport
(ICAO code)
9. Route of Flight
10. Remarks


00:00:00 Departure ATIS: Destination ATIS:

Clearance Limit:
Route:
Altitude: Expect in minutes
Frequency:
Transponder: (7500 Hijack / 7600 Lost Comms / 7700 Emergency)


KWJF 282156Z 08014KT 10SM CLR 15/M16 A3035 RMK AO2 SLP285 T01501161
Time: 2022-01-28T21:56:00Z
1643409116
Winds: 80 @ 14 kts
Visibility: 10.0 sm
Clouds (AGL): CLR
Temperature: 15.0 C
Dew Point: -16.1 C
Pressure: 30.351377 in Hgbr


Notes:

Data extracted from FAA Digital Chart Supplement. Effective: 0901Z Thursday, DEC 2, 2021 to 0901Z Thursday, JAN 27, 2022
Current ATIS data is provided courtisy of PilotEdge.